Date String (YYYY-MM-DD hh:mm:ss) UTC,Instrument flags,Ambient pressure (hPa),Sample flow (lpm),Bypass flow (lpm),Sample temperature (°C),Ambient temperature (°C),ASC tube jacket temperature (°C),LED temperature (°C),Box temperature (°C),Sample RH (%),Span deviation,Mass concentration (μg/m³),Mass concentration (μg/m³),Mass concentration (μg/m³)
DateTimeUTC,F1_M11,P_M11,Q1_M11,Q2_M11,T1_M11,T2_M11,T3_M11,T4_M11,T5_M11,U1_M11,ZSPAN_M11,X2_M11,X0_M11,X1_M11
2023-02-16 23:00:00,,0827.2,5.01,0.00,21.9,20.1,00.0,30.9,23.6,06.4,0000.0,0004.15,0008.34,0003.70
2023-02-16 23:01:00,,0827.2,5.01,0.00,21.9,20.1,00.0,30.9,23.5,06.2,0000.0,0004.15,0007.85,0003.69
2023-02-16 23:02:00,,0827.2,5.02,0.00,21.8,20.1,00.0,30.9,23.5,06.3,0000.0,0004.15,0008.29,0003.68
2023-02-16 23:03:00,,0827.2,5.00,0.00,21.8,20.2,00.0,30.8,23.5,06.4,0000.0,0004.14,0008.29,0003.67
2023-02-16 23:04:00,,0827.2,5.00,0.00,21.8,20.2,00.0,30.8,23.5,06.8,0000.0,0004.11,0008.21,0003.67
2023-02-16 23:05:00,,0827.2,5.00,0.00,21.9,20.2,00.0,30.8,23.6,06.7,0000.0,0004.09,0008.29,0003.65
2023-02-16 23:06:00,,0827.2,5.01,0.00,21.8,20.2,00.0,30.8,23.6,06.7,0000.0,0004.09,0008.33,0003.63
2023-02-16 23:07:00,,0827.2,5.01,0.00,21.8,20.2,00.0,30.8,23.5,06.8,0000.0,0004.07,0008.31,0003.61
2023-02-16 23:08:00,,0827.2,5.02,0.00,21.8,20.2,00.0,30.8,23.6,06.9,0000.0,0004.05,0007.86,0003.58
2023-02-16 23:09:00,,0827.2,5.01,0.00,21.9,20.3,00.0,30.8,23.6,07.2,0000.0,0003.99,0007.70,0003.55
2023-02-16 23:10:00,,0827.2,4.99,0.00,21.9,20.4,00.0,30.8,23.6,07.0,0000.0,0004.01,0008.56,0003.52
2023-02-16 23:11:00,,0827.2,5.00,0.00,21.9,20.4,00.0,30.8,23.6,06.8,0000.0,0003.99,0008.74,0003.50
2023-02-16 23:12:00,,0827.2,5.00,0.00,21.9,20.5,00.0,30.8,23.7,07.3,0000.0,0003.96,0008.86,0003.48
2023-02-16 23:13:00,,0827.2,5.01,0.00,21.9,20.5,00.0,30.8,23.7,07.0,0000.0,0003.93,0008.38,0003.45
2023-02-16 23:14:00,,0827.3,5.00,0.00,21.9,20.5,00.0,30.8,23.7,06.8,0000.0,0003.90,0008.18,0003.42
2023-02-16 23:15:00,,0827.2,5.00,0.00,21.9,20.6,00.0,30.8,23.7,06.7,0000.0,0003.88,0008.19,0003.38
2023-02-16 23:16:00,,0827.2,4.98,0.00,21.9,20.6,00.0,30.8,23.7,06.8,0000.0,0003.88,0008.52,0003.36
2023-02-16 23:17:00,,0827.3,5.01,0.00,21.9,20.5,00.0,30.8,23.7,06.8,0000.0,0003.84,0009.79,0003.35
2023-02-16 23:18:00,,0827.2,5.01,0.00,21.9,20.5,00.0,30.8,23.7,06.8,0000.0,0003.85,0010.21,0003.34
2023-02-16 23:19:00,,0827.2,5.01,0.00,21.9,20.4,00.0,30.8,23.7,06.9,0000.0,0003.83,0010.16,0003.33
2023-02-16 23:20:00,,0827.3,4.97,0.00,21.9,20.4,00.0,30.8,23.7,06.9,0000.0,0003.86,0010.23,0003.34
2023-02-16 23:21:00,,0827.3,5.01,0.00,21.9,20.4,00.0,30.8,23.7,06.8,0000.0,0003.85,0009.44,0003.34
2023-02-16 23:22:00,,0827.3,4.98,0.00,21.9,20.4,00.0,30.8,23.7,06.8,0000.0,0003.84,0009.26,0003.34
2023-02-16 23:23:00,,0827.3,4.99,0.00,21.9,20.4,00.0,30.8,23.7,06.8,0000.0,0003.83,0009.17,0003.32
2023-02-16 23:24:00,,0827.3,5.01,0.00,21.9,20.4,00.0,30.8,23.7,06.9,0000.0,0003.85,0009.31,0003.32
2023-02-16 23:25:00,,0827.3,4.99,0.00,21.9,20.4,00.0,30.8,23.7,06.9,0000.0,0003.84,0009.33,0003.31
2023-02-16 23:26:00,,0827.3,4.99,0.00,21.9,20.4,00.0,30.8,23.7,07.0,0000.0,0003.85,0010.17,0003.31
2023-02-16 23:27:00,,0827.3,5.00,0.00,21.9,20.4,00.0,30.8,23.7,07.0,0000.0,0003.88,0010.54,0003.30
2023-02-16 23:28:00,,0827.3,5.04,0.00,22.0,21.1,00.0,30.7,23.9,07.0,0000.0,0003.89,0009.48,0003.29
2023-02-16 23:29:00,,0827.3,4.94,0.00,22.1,22.2,00.0,30.7,24.1,06.9,0000.0,0003.87,0008.76,0003.28
2023-02-16 23:30:00,,0827.3,5.03,0.00,22.2,22.7,00.0,30.8,24.3,06.9,0000.0,0003.87,0008.89,0003.28
2023-02-16 23:31:00,,0827.3,5.02,0.00,22.2,22.3,00.0,30.8,24.2,06.9,0000.0,0003.89,0008.92,0003.28
2023-02-16 23:32:00,,0827.4,5.01,0.00,22.3,22.0,00.0,30.9,24.2,06.9,0000.0,0003.91,0009.15,0003.28
2023-02-16 23:33:00,,0827.4,4.98,0.00,22.3,21.7,00.0,30.9,24.2,06.9,0000.0,0003.95,0009.68,0003.27
2023-02-16 23:34:00,,0827.4,5.01,0.00,22.3,21.5,00.0,31.0,24.1,06.8,0000.0,0003.95,0009.70,0003.27
2023-02-16 23:35:00,,0827.4,5.00,0.00,22.3,21.4,00.0,31.0,24.1,06.8,0000.0,0003.91,0009.57,0003.26
2023-02-16 23:36:00,,0827.4,4.99,0.00,22.3,21.3,00.0,31.0,24.1,06.7,0000.0,0003.92,0009.55,0003.26
2023-02-16 23:37:00,,0827.4,4.99,0.00,22.3,21.2,00.0,31.0,24.1,06.7,0000.0,0003.90,0008.72,0003.25
2023-02-16 23:38:00,,0827.4,4.98,0.00,22.3,21.1,00.0,31.0,24.1,06.6,0000.0,0003.85,0008.33,0003.24
2023-02-16 23:39:00,,0827.4,5.01,0.00,22.3,21.1,00.0,31.1,24.1,06.5,0000.0,0003.81,0008.52,0003.23
2023-02-16 23:40:00,,0827.4,5.02,0.00,22.3,21.1,00.0,31.1,24.1,06.5,0000.0,0003.80,0009.08,0003.22
2023-02-16 23:41:00,,0827.4,5.00,0.00,22.3,21.1,00.0,31.1,24.1,06.5,0000.0,0003.78,0009.45,0003.20
2023-02-16 23:42:00,,0827.4,4.99,0.00,22.3,21.1,00.0,31.1,24.1,06.5,0000.0,0003.76,0009.47,0003.17
2023-02-16 23:43:00,,0827.4,5.01,0.00,22.3,21.0,00.0,31.1,24.1,06.4,0000.0,0003.68,0009.25,0003.14
2023-02-16 23:44:00,,0827.5,5.00,0.00,22.3,21.0,00.0,31.1,24.1,06.3,0000.0,0003.64,0008.66,0003.12
2023-02-16 23:45:00,,0827.4,4.99,0.00,22.3,20.9,00.0,31.1,24.1,06.2,0000.0,0003.60,0008.53,0003.07
2023-02-16 23:46:00,,0827.4,5.03,0.00,22.3,20.9,00.0,31.1,24.1,06.2,0000.0,0003.55,0008.43,0003.01
2023-02-16 23:47:00,,0827.4,5.00,0.00,22.3,20.8,00.0,31.1,24.1,06.1,0000.0,0003.48,0008.31,0002.94
2023-02-16 23:48:00,,0827.4,5.02,0.00,22.3,20.8,00.0,31.1,24.1,06.1,0000.0,0003.44,0008.25,0002.89
2023-02-16 23:49:00,,0827.5,5.00,0.00,22.3,20.7,00.0,31.1,24.0,06.1,0000.0,0003.41,0007.95,0002.84
2023-02-16 23:50:00,,0827.5,5.00,0.00,22.3,20.7,00.0,31.1,24.0,06.1,0000.0,0003.42,0007.61,0002.79
2023-02-16 23:51:00,,0827.5,4.99,0.00,22.3,20.7,00.0,31.1,24.0,06.1,0000.0,0003.40,0006.94,0002.75
2023-02-16 23:52:00,,0827.5,5.00,0.00,22.3,20.7,00.0,31.1,24.0,06.1,0000.0,0003.38,0005.88,0002.71
2023-02-16 23:53:00,,0827.5,5.00,0.00,22.2,20.7,00.0,31.1,24.0,06.1,0000.0,0003.36,0005.83,0002.68
2023-02-16 23:54:00,,0827.5,4.99,0.00,22.2,20.7,00.0,31.1,24.0,06.0,0000.0,0003.35,0005.79,0002.67
2023-02-16 23:55:00,,0827.6,5.00,0.00,22.2,20.7,00.0,31.1,23.9,06.0,0000.0,0003.32,0005.61,0002.65
2023-02-16 23:56:00,,0827.5,4.99,0.00,22.2,20.7,00.0,31.1,24.0,06.0,0000.0,0003.30,0005.60,0002.64
2023-02-16 23:57:00,,0827.5,5.01,0.00,22.2,20.7,00.0,31.1,24.0,06.0,0000.0,0003.33,0005.94,0002.65
2023-02-16 23:58:00,,0827.5,5.01,0.00,22.2,20.7,00.0,31.1,24.0,06.0,0000.0,0003.38,0006.27,0002.67
2023-02-16 23:59:00,,0827.5,5.00,0.00,22.2,20.7,00.0,31.1,24.0,06.0,0000.0,0003.39,0006.32,0002.70
